Jackson, MN

3:43 PM CDT on October 20, 2017 (GMT -0500)
Jackson Municipal

Weather History for KMJQ - June, 2014

Change the Weather History Date:

Friday, June 27, 2014

  Actual Average Record
Temperature  
Mean Temperature 73 °F -  
Max Temperature 80 °F 79 °F 95 °F (2012)
Min Temperature 66 °F 58 °F 48 °F (2000)
Cooling Degree Days 8    
Growing Degree Days 23 (Base 50)    
Moisture  
Dew Point 64 °F    
Average Humidity 76    
Maximum Humidity 88    
Minimum Humidity 57    
Precipitation  
Precipitation 0.00 in - - ()
Sea Level Pressure  
Sea Level Pressure 29.80 in    
Wind  
Wind Speed 11 mph (SSE)    
Max Wind Speed 23 mph    
Max Gust Speed 28 mph    
Visibility 10 miles    
Events Rain    
Averages and records for this station are not official NWS values.
T = Trace of Precipitation, MM = Missing Value Source: NWS Daily Summary

Daily Weather History Graph

Daily Weather History Graph

Search for Another Location

Airport or City:

Trip Planner

Search our weather history database for the weather conditions in past years. The results will help you decide how hot, cold, wet, or windy it might be!

Date:

Astronomy

Jun. 27, 2014 Rise Set
Actual Time 5:40 AM CDT 9:05 PM CDT
Civil Twilight 5:04 AM CDT 9:41 PM CDT
Nautical Twilight 4:17 AM CDT 10:28 PM CDT
Astronomical Twilight 3:18 AM CDT 11:27 PM CDT
Moon 6:14 AM CDT (6/27) 9:07 PM CDT (6/27)
Length of Visible Light 16h 37m
Length of Day
15h 25m
New Moon, 0% of the Moon is Illuminated
Jun 27
New Moon
Jul 5
First Quarter
Jul 12
Full
Jul 18
Last Quarter
Jul 26
New

Hourly Weather History & Observations

Time (CDT) Temp. Heat Index Dew Point Humidity Pressure Visibility Wind Dir Wind Speed Gust Speed Precip Events Conditions
12:12 AM 69.8 °F - 66.2 °F 88% 29.89 in 10.0 mi SE 10.4 mph 17.3 mph N/A   Overcast
12:32 AM 69.8 °F - 64.4 °F 83% 29.88 in 10.0 mi SSE 9.2 mph - N/A   Mostly Cloudy
12:52 AM 69.8 °F - 64.4 °F 83% 29.88 in 10.0 mi South 10.4 mph - N/A   Mostly Cloudy
1:12 AM 68.0 °F - 62.6 °F 83% 29.88 in 10.0 mi South 9.2 mph 17.3 mph N/A   Scattered Clouds
1:32 AM 68.0 °F - 62.6 °F 83% 29.87 in 10.0 mi South 9.2 mph - N/A   Clear
1:52 AM 68.0 °F - 62.6 °F 83% 29.86 in 10.0 mi SSE 8.1 mph - N/A   Clear
2:12 AM 66.2 °F - 60.8 °F 83% 29.87 in 10.0 mi South 9.2 mph - N/A   Clear
2:31 AM 66.2 °F - 60.8 °F 83% 29.86 in 10.0 mi SSE 10.4 mph - N/A   Clear
2:52 AM 66.2 °F - 60.8 °F 83% 29.85 in 10.0 mi SSE 9.2 mph - N/A   Clear
3:31 AM 66.2 °F - 62.6 °F 88% 29.83 in 10.0 mi SSE 6.9 mph - N/A   Scattered Clouds
3:52 AM 66.2 °F - 60.8 °F 83% 29.83 in 10.0 mi SE 5.8 mph - N/A   Mostly Cloudy
4:12 AM 66.2 °F - 62.6 °F 88% 29.84 in 10.0 mi SSE 6.9 mph - N/A   Overcast
4:31 AM 66.2 °F - 62.6 °F 88% 29.84 in 10.0 mi SSE 6.9 mph - N/A   Overcast
4:52 AM 66.2 °F - 62.6 °F 88% 29.84 in 10.0 mi SSE 9.2 mph - N/A   Mostly Cloudy
5:12 AM 66.2 °F - 62.6 °F 88% 29.84 in 10.0 mi SSE 9.2 mph - N/A   Scattered Clouds
5:31 AM 66.2 °F - 62.6 °F 88% 29.84 in 10.0 mi SSE 8.1 mph - N/A   Scattered Clouds
5:52 AM 68.0 °F - 62.6 °F 83% 29.83 in 10.0 mi SSE 10.4 mph - N/A   Scattered Clouds
6:32 AM 68.0 °F - 62.6 °F 83% 29.83 in 10.0 mi SSE 9.2 mph - N/A   Scattered Clouds
6:52 AM 68.0 °F - 62.6 °F 83% 29.83 in 10.0 mi SSE 11.5 mph - N/A   Clear
7:12 AM 68.0 °F - 62.6 °F 83% 29.83 in 10.0 mi SSE 11.5 mph 18.4 mph N/A   Scattered Clouds
7:32 AM 68.0 °F - 62.6 °F 83% 29.82 in 10.0 mi SE 11.5 mph - N/A   Mostly Cloudy
7:52 AM 68.0 °F - 62.6 °F 83% 29.82 in 10.0 mi SSE 11.5 mph 18.4 mph N/A   Overcast
8:12 AM 69.8 °F - 64.4 °F 83% 29.83 in 10.0 mi SSE 13.8 mph - N/A   Overcast
8:32 AM 71.6 °F - 64.4 °F 78% 29.83 in 10.0 mi SSE 13.8 mph 23.0 mph N/A   Mostly Cloudy
8:52 AM 71.6 °F - 64.4 °F 78% 29.82 in 10.0 mi SSE 12.7 mph 21.9 mph N/A   Scattered Clouds
9:12 AM 73.4 °F - 64.4 °F 73% 29.82 in 10.0 mi SE 12.7 mph 19.6 mph N/A   Clear
9:32 AM 73.4 °F - 64.4 °F 73% 29.81 in 10.0 mi SSE 10.4 mph - N/A   Clear
9:52 AM 75.2 °F - 64.4 °F 69% 29.81 in 10.0 mi SSE 15.0 mph 20.7 mph N/A   Clear
10:12 AM 75.2 °F - 64.4 °F 69% 29.80 in 10.0 mi South 12.7 mph 18.4 mph N/A   Mostly Cloudy
10:32 AM 75.2 °F - 64.4 °F 69% 29.80 in 10.0 mi SSE 13.8 mph 19.6 mph N/A   Overcast
10:52 AM 73.4 °F - 64.4 °F 73% 29.78 in 10.0 mi SSE 9.2 mph - N/A   Overcast
11:11 AM 73.4 °F - 68.0 °F 83% 29.79 in 7.0 mi SE 11.5 mph - N/A   Overcast
11:32 AM 73.4 °F - 66.2 °F 78% 29.79 in 10.0 mi SE 15.0 mph - N/A   Overcast
11:52 AM 71.6 °F - 64.4 °F 78% 29.76 in 10.0 mi SE 18.4 mph 25.3 mph N/A   Overcast
12:12 PM 73.4 °F - 66.2 °F 78% 29.74 in 10.0 mi ESE 15.0 mph 24.2 mph N/A   Mostly Cloudy
12:32 PM 71.6 °F - 64.4 °F 78% 29.75 in 10.0 mi SE 19.6 mph 25.3 mph N/A   Overcast
12:52 PM 71.6 °F - 64.4 °F 78% 29.80 in 10.0 mi SSE 23.0 mph 27.6 mph N/A Rain Light Rain
1:11 PM 71.6 °F - 64.4 °F 78% 29.80 in 10.0 mi SSE 18.4 mph 26.5 mph N/A   Overcast
1:32 PM 73.4 °F - 64.4 °F 73% 29.79 in 10.0 mi South 12.7 mph 23.0 mph N/A   Overcast
1:52 PM 75.2 °F - 64.4 °F 69% 29.80 in 10.0 mi South 16.1 mph 24.2 mph N/A   Mostly Cloudy
2:11 PM 77.0 °F - 64.4 °F 65% 29.78 in 10.0 mi South 11.5 mph - N/A   Mostly Cloudy
2:32 PM 78.8 °F - 62.6 °F 57% 29.78 in 10.0 mi South 15.0 mph 23.0 mph N/A   Scattered Clouds
2:52 PM 78.8 °F - 64.4 °F 61% 29.78 in 10.0 mi South 10.4 mph - N/A   Clear
3:32 PM 78.8 °F - 62.6 °F 57% 29.77 in 10.0 mi SSW 13.8 mph 19.6 mph N/A   Clear
3:52 PM 78.8 °F - 64.4 °F 61% 29.77 in 10.0 mi South 12.7 mph - N/A   Mostly Cloudy
4:11 PM 80.6 °F 82.3 °F 64.4 °F 58% 29.78 in 10.0 mi South 13.8 mph 17.3 mph N/A   Overcast
4:32 PM 80.6 °F 82.3 °F 64.4 °F 58% 29.79 in 10.0 mi South 12.7 mph 18.4 mph N/A   Overcast
4:52 PM 80.6 °F 82.3 °F 64.4 °F 58% 29.78 in 10.0 mi SSE 15.0 mph 18.4 mph N/A   Mostly Cloudy
5:11 PM 78.8 °F - 64.4 °F 61% 29.78 in 10.0 mi South 12.7 mph 17.3 mph N/A   Mostly Cloudy
5:32 PM 78.8 °F - 64.4 °F 61% 29.77 in 10.0 mi SSE 12.7 mph 17.3 mph N/A   Mostly Cloudy
5:52 PM 78.8 °F - 64.4 °F 61% 29.77 in 10.0 mi SSE 16.1 mph 20.7 mph N/A   Scattered Clouds
6:12 PM 78.8 °F - 64.4 °F 61% 29.78 in 10.0 mi South 16.1 mph 21.9 mph N/A   Scattered Clouds
6:32 PM 78.8 °F - 62.6 °F 57% 29.78 in 10.0 mi South 21.9 mph 25.3 mph N/A   Scattered Clouds
6:52 PM 77.0 °F - 62.6 °F 61% 29.77 in 10.0 mi South 13.8 mph 24.2 mph N/A   Mostly Cloudy
7:11 PM 77.0 °F - 64.4 °F 65% 29.76 in 10.0 mi South 16.1 mph - N/A   Mostly Cloudy
7:32 PM 77.0 °F - 64.4 °F 65% 29.75 in 10.0 mi South 13.8 mph 20.7 mph N/A   Scattered Clouds
7:52 PM 77.0 °F - 64.4 °F 65% 29.75 in 10.0 mi SSE 15.0 mph 20.7 mph N/A   Mostly Cloudy
8:11 PM 77.0 °F - 64.4 °F 65% 29.76 in 10.0 mi SSE 15.0 mph 21.9 mph N/A   Mostly Cloudy
8:32 PM 75.2 °F - 64.4 °F 69% 29.76 in 10.0 mi SSE 11.5 mph 19.6 mph N/A   Clear
8:52 PM 75.2 °F - 66.2 °F 73% 29.75 in 10.0 mi SSE 10.4 mph 16.1 mph N/A   Scattered Clouds
9:11 PM 73.4 °F - 68.0 °F 83% 29.75 in 10.0 mi SSE 10.4 mph 17.3 mph N/A   Scattered Clouds
9:32 PM 73.4 °F - 68.0 °F 83% 29.75 in 10.0 mi SSE 12.7 mph - N/A   Scattered Clouds
9:52 PM 73.4 °F - 68.0 °F 83% 29.75 in 10.0 mi SSE 11.5 mph - N/A   Scattered Clouds
10:12 PM 73.4 °F - 68.0 °F 83% 29.76 in 10.0 mi SSE 10.4 mph - N/A   Scattered Clouds
10:31 PM 73.4 °F - 69.8 °F 88% 29.77 in 10.0 mi SSE 11.5 mph - N/A   Mostly Cloudy
10:52 PM 73.4 °F - 69.8 °F 88% 29.78 in 10.0 mi SSE 12.7 mph 17.3 mph N/A   Overcast
11:11 PM 73.4 °F - 69.8 °F 88% 29.78 in 10.0 mi SSE 15.0 mph - N/A   Mostly Cloudy
11:32 PM 73.4 °F - 69.8 °F 88% 29.78 in 10.0 mi South 11.5 mph 19.6 mph N/A   Scattered Clouds
11:52 PM 73.4 °F - 69.8 °F 88% 29.78 in 10.0 mi SSE 13.8 mph - N/A   Clear